Biomass

operational
NORAD ID: 63772 Int'l Des: 2025-090 Owner: ESA Country: I-ESA
LEOCIRCULARRETROGRADESSO

Biomassについて

説明を読み込み中...

リアルタイム位置

3D地球を読み込み中...

次回通過

高度履歴

Altitude vs Time

uPlot chart will show altitude changes over time

軌道要素

1 63772U 25090A 25340.48123605 -.00002987 00000-0 -51875-3 0 9991
2 63772 98.0712 165.5814 0001151 62.7963 297.3359 14.67526401 32420
Epoch: Dec 6, 2025 • Age: 28 hours

現在のステータス

高度 681.8 km
速度 7.52 km/s
衛星直下点 81.97°N, 122.68°E
打ち上げ日 Apr 29, 2025
運用期間 0.6 years
タイプ other

技術仕様

分類 Payload
質量 1131.00 kg
乾燥質量 1099.00 kg
総質量 1131.00 kg
長さ 4.00 m
直径 2.00 m
スパン 12.00 m
形状 Box+pan+dish
製造者 ADSUK
バスタイプ Biomass
フェーズステータス In Orbit
所有者/国 ESA/I-ESA

大規模コンステレーション

Loading constellations...